User: anonymous
Location: Stamford Observatory
(41.1241°N, 73.5498°W)
Time: 20:07:05
(UTC-04:00)
Language:

IRS-P3 - Orbit

View from above orbital plane
View from above orbital plane
View from above satellite
View from above satellite

Ground track
Ground track

The orbit data is extracted from the following two-line orbital elements,

1 23827U 96017A   14110.46622454  .00000277  00000-0  14434-3 0  9822
2 23827 098.6193 050.9026 0004404 127.9437 008.4581 14.22179566938400
Epoch (UTC): 20 April 2014 11:11:21
Eccentricity: 0.0004404
inclination: 98.6193°
perigee height: 815 km
apogee height: 821 km
right ascension of ascending node: 50.9026°
argument of perigee: 127.9437°
revolutions per day: 14.22179566
mean anomaly at epoch: 8.4581°
orbit number at epoch: 93840

The dashed part of the orbit path shows where the satellite is in the earth's shadow,  

DLR